Regional Weather Roundup
Issued by NWS

Home | Current Version | Previous Version | Text Only | Print | Product List | Glossary Off
Versions: 1 2 3 4 5 6 7 8 9 10 11 12 13 14 15 16 17 18 19 20 21 22 23 24 25 26 27 28 29 30 31 32 33 34 35 36 37 38 39 40 41 42 43 44 45 46 47 48 49 50

000
ASUS43 KFSD 282302
RWRSD

WEATHER ROUNDUP FOR SOUTH DAKOTA
NATIONAL WEATHER SERVICE SIOUX FALLS SD
600 PM CDT SAT MAR 28 2015

NOTE: "FAIR" INDICATES FEW OR NO CLOUDS BELOW 12,000 FEET WITH NO
SIGNIFICANT WEATHER AND/OR OBSTRUCTIONS TO VISIBILITY.


SDZ001>005-009-010-012>017-290000-
NORTHWEST AND NORTH CENTRAL SOUTH DAKOTA

CITY           SKY/WX    TMP DP  RH WIND       PRES   REMARKS
BUFFALO          N/A     80  28  15 SW16      29.46F
FAITH            N/A     77  29  17 S18       29.57F
MOBRIDGE       SUNNY     67  36  31 S21       29.60F
$$

SDZ012>016-024>037-041>051-057-063-072>074-290000-
SOUTHWEST AND SOUTH CENTRAL SOUTH DAKOTA

CITY           SKY/WX    TMP DP  RH WIND       PRES   REMARKS
RAPID CTY ARPT SUNNY     82  23  11 W18G26    29.58F
PIERRE         SUNNY     73  36  25 SE21G29   29.64F
CUSTER         MOSUNNY   70  15  12 W26G40    29.74F
ELLSWORTH AFB  MOSUNNY   82  25  12 W21G26    29.57F
PHILIP         SUNNY     83  26  12 SW15G30   29.58F
PINE RIDGE     SUNNY     81  21  11 W21G31    29.67F
SPEARFISH      FAIR      77  27  15 W18G31    29.62F
WINNER         FAIR      73  34  23 S25G32    29.72F
$$

SDZ004>011-016>023-039-040-290000-
NORTHEAST SOUTH DAKOTA

CITY           SKY/WX    TMP DP  RH WIND       PRES   REMARKS
ABERDEEN       SUNNY     57  31  37 S21G37    29.77F
WATERTOWN      SUNNY     52  28  39 S24G31    29.85F
SISSETON         N/A     53  31  42 S24G33    29.82F
$$

SDZ017-020-022-023-036>040-048>070-290000-
SOUTHEAST SOUTH DAKOTA

CITY           SKY/WX    TMP DP  RH WIND       PRES   REMARKS
SIOUX FALLS    SUNNY     53  27  36 S21G29    29.93F
HURON          SUNNY     57  30  35 S23G32    29.82F
MITCHELL       SUNNY     57  32  38 S25       29.85F
YANKTON        SUNNY     55  30  38 S18G29    29.93F
$$

ABBREVIATIONS USED IN REMARKS
   TC - TEMPERATURE IN CELSIUS
  WCI - WIND CHILL INDEX
   HX - HEAT INDEX
  VSB - VISIBILITY




USA.gov is the U.S. government's official web portal to all federal, state and local government web resources and services.